Tracking 35274 objects as of 12-Sep-2026
HD Live streaming from Space Station
objects crossing your sky now

FLOCK 4S 25


FLOCK 4S 25 is no longer on orbit
FLOCK 4S 25 is classified as:


NORAD ID: 47542
Int'l Code: 2021-006EC
Launch date: January 24, 2021
Source: United States (US)
Launch site: AIR FORCE EASTERN TEST RANGE (AFETR)
Decay date: 2024-08-21
Your satellite tracking list
Your tracking list is empty




NASA's NSSDC Master Catalog

Two Line Element Set (TLE):
1 47542U 21006EC  24234.06342765  .18785172  25002-5  48268-3 0  9993
2 47542  97.2782 301.9205 0014756 259.5218 100.4422 16.44569041198285
Source of the keplerian elements: AFSPC